Wind_Speed
31 29 28 26 24 23 22 22 22 22 21 21 21 21 20 20 20 20 21 21 21 21 21 21 22 23 24 24 24 23 22 21 18 14 11 9 8 7 8 10 12 15 18 20 22 24 25 25 26 26 26 27 28 29 29 29 29 30 31 31 31 32 32 33 34 34 34 34 33
31 30 29 27 26 25 24 24 24 24 23 22 21 21 21 20 20 20 21 22 21 21 22 22 23 24 25 25 24 24 24 25 23 21 18 15 13 10 8 7 6 7 9 13 17 20 23 24 25 24 23 23 25 27 29 30 30 30 32 33 33 31 31 31 33 33 33 33 33
31 31 30 30 29 27 26 25 25 25 24 23 23 22 22 21 21 21 22 23 23 24 24 24 25 25 25 26 26 26 26 26 26 26 25 23 20 17 14 11 8 5 4 6 8 11 15 19 21 23 23 23 23 25 27 29 30 30 31 32 32 32 32 32 33 33 33 32 33
31 30 30 30 29 28 26 25 25 25 25 24 24 23 23 23 23 23 24 25 26 27 27 26 26 26 26 27 27 28 28 28 28 28 28 28 27 25 22 19 16 13 9 6 5 6 9 12 15 19 22 25 25 25 26 28 29 30 31 31 31 31 30 30 30 31 33 34 34
31 30 30 29 28 27 26 25 25 25 25 25 25 24 24 25 25 26 26 27 28 28 28 28 28 27 27 27 28 29 31 31 30 30 31 31 30 29 28 26 24 22 19 15 11 7 5 5 6 7 11 16 21 24 26 27 29 30 30 31 30 31 31 30 29 29 30 32 32
30 29 29 28 28 27 26 25 25 24 25 25 26 25 25 25 26 26 27 27 28 29 29 29 29 28 28 28 30 31 32 32 32 32 32 33 33 33 32 31 30 28 26 24 21 17 13 10 9 10 11 12 12 12 14 17 22 26 29 30 30 30 30 31 31 30 30 31 32
29 28 28 27 27 27 26 25 25 24 25 25 26 26 26 26 26 26 26 27 28 29 30 30 30 29 28 29 30 31 32 32 32 33 34 34 34 35 34 34 34 33 31 30 28 26 23 21 20 20 20 20 20 21 21 18 13 11 16 22 27 30 30 31 32 32 32 32 34
28 28 27 27 27 26 26 25 24 24 24 25 25 25 25 25 25 26 26 28 28 29 29 30 29 28 28 29 30 31 31 31 32 33 34 35 35 36 36 36 36 35 34 33 32 31 29 28 27 27 27 27 27 27 25 22 19 14 8 7 10 15 23 27 29 31 34 37 38
28 28 27 27 27 26 26 25 25 24 24 24 25 25 25 25 26 27 27 28 28 28 29 29 29 28 29 29 30 30 30 30 31 32 34 35 36 36 37 37 36 36 35 34 34 33 32 31 30 30 29 29 29 30 30 28 26 22 18 16 21 21 19 15 11 11 16 22 29
27 27 26 26 26 26 26 25 25 25 25 24 25 25 25 26 27 27 27 27 27 27 28 28 29 29 29 29 29 29 29 29 30 32 33 34 35 36 36 35 35 34 34 34 34 33 32 31 31 31 30 30 30 31 32 32 32 30 27 26 27 27 27 27 26 23 19 15 11
27 26 25 25 25 25 25 25 25 25 25 24 25 25 25 26 26 27 26 27 27 28 28 28 28 28 28 28 27 27 27 28 30 31 32 33 34 35 35 34 34 34 34 33 33 32 31 30 30 30 30 30 31 32 33 34 34 33 32 31 30 31 31 31 30 28 26 26 24
26 26 25 25 25 25 25 25 25 25 25 25 24 24 25 26 26 27 27 28 28 28 28 27 27 26 26 25 25 26 27 29 30 31 31 32 33 33 34 34 34 33 33 32 31 31 30 29 29 29 29 30 30 31 32 33 33 32 32 32 32 32 32 32 33 32 30 30 29
24 24 25 25 25 25 25 25 25 25 25 25 25 25 25 26 27 28 29 29 28 27 26 25 24 24 23 24 25 27 28 29 30 30 30 30 31 32 33 33 33 32 32 31 31 30 30 29 29 29 29 29 29 30 30 31 31 30 30 30 31 32 31 31 32 32 32 32 32
22 22 23 24 24 24 24 24 24 25 25 26 26 27 27 28 28 28 28 27 26 25 24 23 22 22 23 24 26 28 29 29 29 29 29 29 30 31 32 32 31 31 30 30 30 30 29 29 29 29 28 28 28 29 29 30 29 29 29 29 29 30 30 30 30 30 31 31 32
21 20 21 21 22 23 23 23 23 24 25 26 27 27 27 27 27 27 26 26 25 24 23 22 21 22 23 25 27 29 30 30 29 29 28 29 30 30 31 31 30 30 29 29 29 29 29 28 28 28 28 27 27 28 28 29 29 29 28 28 28 28 28 28 29 29 29 29 30
20 19 19 19 20 21 21 21 22 23 25 26 26 27 27 26 26 26 26 25 24 23 22 21 21 21 23 24 27 29 30 30 30 29 28 28 29 29 30 30 29 29 28 28 28 28 28 27 27 27 27 27 27 27 27 27 27 28 28 28 27 27 27 27 27 27 27 28 28
20 20 19 19 19 19 20 20 21 22 24 25 26 26 26 26 26 26 26 25 25 24 23 22 22 22 23 24 26 28 29 30 29 29 28 28 28 28 29 29 29 28 28 27 27 27 27 26 26 26 26 27 27 27 26 26 26 26 27 27 27 27 26 26 26 26 26 26 26
21 20 20 20 19 19 20 20 20 21 22 24 24 25 25 25 25 26 26 26 25 25 24 23 23 23 23 24 25 26 27 28 28 27 27 26 26 27 28 28 28 28 28 28 27 26 26 25 25 25 25 26 26 27 27 26 26 26 26 26 26 26 26 26 26 25 25 25 25
21 21 21 21 20 20 20 20 20 20 21 21 22 23 24 24 24 25 25 25 25 25 25 25 24 24 24 24 24 25 25 26 25 25 25 25 25 25 26 27 27 28 28 28 27 26 26 24 24 23 24 24 25 26 26 26 26 26 26 25 25 25 25 26 25 25 24 24 23
22 22 22 22 21 21 21 21 20 20 20 21 22 22 22 22 23 23 23 23 23 24 24 25 25 25 25 25 25 24 24 24 24 24 23 23 23 24 24 25 26 27 27 27 27 26 25 24 23 23 22 23 23 25 25 26 26 26 26 26 25 25 25 25 25 24 23 23 23
22 22 22 22 22 22 22 22 22 21 22 22 22 22 22 22 22 21 21 20 20 21 22 24 24 25 25 25 24 24 24 24 24 23 23 23 23 23 24 25 25 26 26 26 26 25 25 24 23 22 22 21 22 23 23 24 24 25 25 26 25 25 25 25 25 24 23 22 21
22 22 22 22 22 22 22 23 23 24 24 24 24 23 22 22 21 21 20 20 19 20 21 22 23 23 24 23 23 23 23 23 23 23 23 22 22 22 23 24 25 25 26 26 26 25 24 23 23 23 22 21 20 21 21 22 22 23 23 24 24 24 24 25 25 25 24 22 20
21 22 22 22 22 22 23 23 24 25 25 24 24 23 22 22 21 21 21 20 20 20 20 20 20 21 22 22 22 22 22 23 24 24 23 23 22 22 22 22 23 24 24 25 26 25 24 22 22 22 22 21 20 20 20 20 21 21 21 22 22 22 22 23 24 25 24 23 21
21 21 21 22 22 23 23 23 24 24 24 23 23 22 21 21 21 21 21 22 21 21 20 19 19 20 21 22 22 22 22 23 23 24 24 24 23 22 21 21 21 22 22 23 24 24 24 22 21 21 21 21 20 19 19 20 21 21 21 21 21 21 21 21 23 23 24 23 21
21 21 22 22 22 23 23 23 23 23 23 22 22 21 21 21 21 21 21 22 22 21 21 20 20 20 21 23 23 22 22 22 22 23 24 24 24 23 22 21 20 20 21 23 24 25 24 23 22 21 21 20 19 19 18 19 20 21 21 21 21 20 20 20 21 22 22 23 22
22 22 22 22 22 23 23 23 22 22 22 22 21 21 21 21 20 20 21 21 21 21 21 20 20 20 22 23 24 24 22 22 21 22 22 24 24 24 23 21 20 20 21 23 24 25 25 25 24 22 21 20 20 19 19 18 19 20 20 20 21 20 20 19 19 20 20 21 21
22 22 22 22 22 22 22 22 22 21 21 21 21 21 20 20 20 20 20 20 20 21 21 21 20 20 21 23 24 24 23 21 21 20 21 22 23 23 23 22 21 21 21 23 24 25 25 25 25 23 22 21 20 19 18 18 18 19 19 20 20 20 20 19 19 19 19 20 20
22 21 21 21 21 22 22 22 22 21 21 21 20 20 20 20 20 20 20 19 20 20 21 20 19 19 20 21 23 23 22 21 20 19 19 19 21 22 22 22 21 21 22 23 24 24 25 25 25 24 22 21 20 19 18 18 18 18 18 18 19 20 20 19 19 19 19 20 20
22 21 21 21 21 21 21 21 21 21 20 20 20 20 20 20 20 20 20 19 19 19 20 19 19 18 18 19 20 21 22 21 20 18 18 18 19 20 22 22 21 21 22 23 23 24 24 24 24 24 22 21 20 20 19 18 18 18 18 18 20 21 21 20 20 21 21 21 20
21 21 20 20 20 20 21 21 21 20 20 19 19 19 19 20 20 20 20 19 19 18 18 18 18 17 17 17 18 19 20 20 20 19 17 17 17 18 20 21 21 21 22 23 23 23 23 23 23 23 22 21 20 20 19 19 19 19 19 19 20 21 21 21 22 22 22 22 21
21 20 19 19 19 20 20 20 20 20 19 19 19 19 19 20 20 20 20 19 18 17 17 18 18 17 16 15 16 17 18 19 19 19 18 16 16 17 18 20 20 20 21 22 23 23 23 23 23 22 21 20 19 19 19 18 19 19 19 20 20 20 21 21 21 22 22 23 22
20 20 19 19 19 19 19 19 19 19 19 19 19 19 19 19 19 19 19 18 18 17 17 18 18 17 16 15 15 15 16 17 18 18 17 16 15 15 17 19 20 20 21 22 23 23 24 24 23 22 21 19 19 18 18 18 18 18 18 19 19 19 20 20 20 21 21 22 22
19 19 18 18 18 18 18 18 18 18 18 18 18 18 18 18 18 18 18 18 18 17 17 18 18 18 17 15 15 15 15 16 17 17 17 16 15 15 16 18 19 20 20 22 23 23 24 24 23 22 20 18 18 18 17 17 17 17 18 18 18 18 19 19 19 20 20 20 21
19 18 18 17 17 17 17 18 18 18 18 18 18 18 18 18 18 18 18 18 18 17 17 17 17 17 16 15 15 15 16 16 16 16 16 16 15 15 16 17 18 19 19 21 22 23 24 24 23 22 20 18 18 17 17 16 17 17 18 18 18 18 18 19 19 19 19 19 20
18 18 18 17 17 17 17 17 18 18 18 18 18 18 18 18 18 18 18 18 17 17 16 17 17 17 16 15 15 16 16 16 16 16 15 15 15 15 16 17 18 18 19 20 22 23 24 24 23 21 20 18 17 17 17 17 17 17 18 18 18 18 18 19 19 19 19 19 19
18 18 18 17 17 17 17 17 18 18 18 19 19 18 18 18 18 18 18 18 17 17 16 17 17 17 16 16 16 16 16 16 16 16 15 15 15 16 16 17 17 18 19 20 21 23 24 24 23 21 19 18 17 17 17 17 17 17 18 18 18 18 18 18 19 19 19 19 18
18 18 18 17 16 16 17 17 18 18 19 19 19 18 18 18 18 18 18 17 17 16 16 16 17 17 16 15 15 15 16 16 16 16 16 15 16 16 17 17 18 18 19 20 21 22 23 24 23 22 20 19 18 17 17 17 17 17 17 17 17 17 18 18 18 19 19 18 18
17 17 16 16 15 15 16 17 18 18 18 18 18 17 17 16 17 17 17 16 16 15 15 16 16 16 15 14 14 14 16 17 17 17 17 16 16 17 17 18 19 19 20 20 21 22 24 25 25 23 22 20 20 19 18 18 17 18 17 17 17 17 17 17 18 18 18 17 17
16 16 15 15 14 14 15 16 17 17 17 17 16 16 15 15 15 15 15 15 14 14 14 15 15 15 14 13 14 15 17 18 19 19 18 18 18 18 19 20 21 21 21 21 22 23 25 26 26 25 24 22 22 21 20 20 20 20 19 19 19 18 18 18 18 18 18 17 16
15 15 14 13 13 13 14 15 16 16 16 16 15 15 15 15 14 15 15 15 15 14 14 15 16 16 16 15 16 17 19 20 21 21 20 19 19 19 20 22 23 23 23 23 23 24 25 26 27 27 26 24 24 24 23 23 23 23 23 23 22 21 21 20 20 19 18 18 17
15 14 14 13 12 13 14 15 16 16 16 15 15 15 15 15 15 16 16 17 17 17 17 17 18 19 19 19 19 20 22 23 23 22 21 21 21 21 22 23 24 24 24 24 23 24 25 26 26 27 26 25 25 25 25 25 25 25 25 25 25 24 23 23 22 21 20 20 19
Wind_Direction
45 44 44 43 43 42 40 39 39 39 37 35 33 33 34 35 35 35 35 34 30 26 24 23 21 21 21 21 20 20 24 27 29 30 29 23 8 344 317 294 280 272 264 257 252 248 246 245 243 242 242 244 246 246 246 246 245 244 243 243 241 240 239 238 240 239 235 229 226
44 44 44 44 43 43 42 40 39 39 39 39 38 37 37 37 36 35 35 34 33 30 28 26 26 25 25 25 25 27 30 32 34 36 40 42 39 33 20 1 340 312 287 274 269 264 260 256 251 247 245 246 247 248 249 250 249 248 247 246 246 245 244 242 242 240 235 229 227
44 44 44 44 43 42 41 39 38 38 39 39 40 40 39 39 38 37 36 36 36 34 32 29 28 27 27 27 28 31 34 36 37 38 39 42 43 44 42 38 30 10 333 305 290 280 273 267 262 257 253 250 248 248 249 250 249 248 247 246 246 246 245 244 242 239 236 233 234
44 43 42 42 42 41 41 40 39 39 40 40 40 41 41 40 40 39 38 38 38 36 34 31 30 29 28 28 29 32 36 38 40 40 40 42 43 45 45 45 44 41 33 12 333 299 282 274 270 266 261 256 253 251 250 248 247 245 245 244 243 242 241 240 238 237 237 239 240
42 43 42 42 42 42 42 42 41 41 41 42 41 41 41 41 41 40 40 39 38 37 35 34 33 32 31 31 32 34 37 39 40 40 41 42 43 45 46 47 46 45 43 39 34 20 343 305 293 293 290 280 271 265 260 256 251 247 244 242 240 239 238 238 237 236 236 238 238
41 42 43 43 42 42 42 42 42 42 42 43 42 41 41 41 41 41 40 39 39 38 38 37 35 33 33 33 35 37 38 38 38 40 41 42 43 45 46 46 47 47 46 45 46 46 47 46 43 34 24 16 1 341 318 295 276 262 251 244 241 239 238 238 237 237 236 235 235
42 42 42 42 42 42 41 41 41 42 42 43 42 41 41 42 42 42 41 41 40 40 39 37 36 34 33 34 36 37 37 36 36 38 40 41 42 43 44 44 45 45 45 45 47 49 51 51 49 45 41 37 31 25 21 15 355 312 272 256 249 245 241 239 240 239 237 235 235
44 44 43 42 42 42 42 41 41 41 41 42 41 41 41 41 42 42 42 42 41 40 39 38 36 34 34 35 36 37 36 35 35 37 38 40 40 41 41 42 42 42 42 43 44 46 48 48 46 43 40 36 32 30 29 29 31 30 15 330 309 279 265 261 257 251 246 243 238
44 45 45 44 44 43 43 42 42 41 41 41 40 41 41 41 42 43 44 42 41 41 40 39 37 36 36 36 37 37 37 36 36 36 38 39 39 39 39 39 38 38 38 40 41 43 45 45 43 42 40 37 33 32 32 35 38 43 44 36 32 30 27 19 353 306 275 262 252
42 44 44 44 43 44 44 44 43 43 42 41 40 41 41 41 43 44 44 44 43 42 41 39 37 36 36 37 37 37 37 37 37 38 38 39 39 39 39 37 36 35 35 36 38 40 40 40 40 40 40 38 35 34 35 38 40 42 42 38 36 35 35 35 36 36 30 16 347
40 42 43 43 43 44 44 43 42 42 42 41 40 40 40 40 42 43 44 45 44 42 41 39 37 36 36 36 36 37 38 38 39 39 39 39 40 40 39 38 36 35 35 35 36 37 37 37 37 37 38 37 36 35 35 37 39 39 38 35 34 34 33 34 35 36 36 36 34
37 40 41 43 43 44 43 42 41 41 40 40 40 39 39 39 40 42 44 44 43 42 40 39 37 35 35 35 36 38 40 40 40 40 39 39 40 40 40 39 37 36 35 34 35 35 35 35 35 36 36 37 36 35 35 35 36 36 35 34 34 33 32 32 32 34 34 35 35
34 35 37 40 42 43 42 41 40 39 39 39 39 39 39 40 41 43 43 43 41 40 39 38 36 34 33 35 38 41 42 42 41 40 39 39 39 40 40 39 38 36 35 34 35 35 35 35 35 36 36 36 37 37 36 36 36 35 34 33 33 32 31 30 30 31 32 33 33
32 32 33 35 38 40 40 40 39 38 38 38 40 41 41 41 42 43 42 41 40 38 36 35 34 33 34 37 41 44 45 44 42 40 38 38 38 39 39 39 38 36 35 35 35 35 35 35 35 36 36 36 36 37 37 37 37 36 35 33 33 32 30 30 30 30 31 31 31
31 30 30 31 33 35 37 37 37 37 38 38 39 41 41 41 41 41 41 40 39 37 35 32 31 32 35 40 44 46 47 46 44 41 38 37 36 36 37 37 36 35 35 34 34 35 35 35 35 36 36 36 36 36 37 37 37 37 36 35 33 32 31 30 30 31 30 30 30
30 30 29 29 30 31 32 33 35 37 38 39 40 41 41 40 40 39 39 38 37 36 34 32 30 31 34 38 43 46 48 47 45 42 39 36 35 34 34 34 33 33 33 33 33 34 34 35 35 36 36 37 36 36 36 36 36 37 37 36 35 33 32 31 31 31 31 31 31
29 29 28 28 27 28 28 30 32 35 37 39 40 41 40 40 40 39 39 38 36 35 33 33 32 32 33 36 40 44 46 46 45 43 40 38 35 33 32 31 31 30 30 31 31 32 33 34 35 36 37 38 38 38 37 37 37 36 36 36 36 34 33 32 31 31 31 31 31
27 27 27 26 26 26 26 27 29 32 34 36 38 39 39 39 39 40 40 39 37 35 34 34 35 35 35 36 38 41 43 44 43 43 41 40 37 34 32 30 29 29 29 29 30 30 31 32 33 34 36 38 38 39 39 39 38 37 36 36 35 34 34 33 33 32 32 31 31
26 25 25 25 25 25 25 26 27 29 31 33 34 35 35 36 37 39 39 39 37 35 34 34 35 36 37 37 38 40 42 43 43 43 42 41 39 36 33 31 29 28 28 28 28 29 29 30 31 32 34 36 37 39 40 40 40 39 37 36 35 34 33 33 33 32 32 32 32
24 23 23 23 24 25 25 26 27 28 29 31 32 32 31 32 33 34 34 34 33 33 34 34 34 36 37 38 38 39 40 41 42 42 42 42 40 37 34 31 29 28 27 27 26 27 27 28 29 30 31 33 35 36 38 39 39 38 38 37 35 34 32 31 31 31 31 31 31
22 22 22 23 23 24 25 26 27 28 30 31 31 30 30 30 30 30 29 29 30 31 32 32 32 33 34 36 37 37 38 39 40 40 41 42 41 39 36 33 30 27 26 25 24 24 24 25 27 28 30 31 32 33 34 34 35 35 35 36 35 34 33 31 30 28 28 28 29
20 21 21 22 23 24 25 27 28 30 31 32 32 31 30 30 30 29 29 29 30 31 31 31 31 31 32 34 35 36 37 38 38 39 40 41 42 41 38 35 31 28 26 24 22 22 22 23 25 28 29 29 30 30 30 30 30 31 31 31 32 32 32 31 30 28 26 25 26
19 20 21 21 22 23 25 26 28 30 31 31 31 30 29 29 30 31 31 32 33 33 33 33 31 30 30 32 34 36 37 37 37 38 39 40 41 41 39 35 32 28 26 24 22 21 21 22 23 25 27 29 28 28 27 28 28 27 27 26 27 28 29 28 28 26 24 22 23
18 19 19 20 21 22 23 25 26 27 28 28 27 27 27 27 28 30 32 33 34 35 35 34 32 31 30 32 34 36 37 36 36 36 37 38 40 40 38 35 32 29 27 25 23 23 23 23 22 22 24 26 27 27 27 27 27 26 25 24 23 24 24 24 24 23 22 20 19
17 18 19 19 19 20 21 22 23 22 23 23 23 23 24 24 25 27 29 30 32 33 34 34 33 31 31 32 35 36 37 36 35 34 34 35 37 38 37 34 31 29 27 25 24 25 25 25 24 23 22 24 25 25 25 25 26 26 25 24 23 22 21 20 20 19 18 17 17
17 17 17 17 18 18 19 19 19 18 18 18 19 19 20 20 21 22 25 26 27 29 30 31 31 30 31 32 34 36 36 35 34 33 33 33 35 36 35 33 30 28 26 24 24 24 25 25 25 24 23 24 24 24 24 23 23 24 24 23 22 21 20 18 16 15 14 14 14
17 16 16 16 16 16 16 16 16 16 15 15 15 15 16 16 17 18 20 21 22 23 25 26 27 27 28 30 32 33 34 33 33 33 32 32 33 33 34 33 30 27 25 24 24 24 24 24 24 23 23 23 24 24 22 21 20 21 21 20 20 20 19 18 15 12 10 10 11
16 15 15 15 15 15 14 15 14 14 13 13 12 13 14 15 15 16 17 18 18 19 20 21 22 23 25 27 29 30 31 31 31 31 31 31 31 32 32 32 30 27 24 24 24 24 23 22 22 22 22 23 24 24 22 20 19 19 19 19 18 17 17 16 14 12 9 8 8
15 15 15 14 13 13 13 13 13 12 11 11 11 12 13 14 14 15 15 16 16 16 16 16 17 19 21 22 24 26 28 28 29 29 29 29 29 29 30 31 29 26 24 23 24 24 23 22 21 20 20 22 24 24 22 20 19 19 19 18 17 17 16 14 12 11 9 7 6
13 13 13 13 12 11 11 11 11 10 10 10 11 12 12 13 13 14 14 14 14 13 13 13 14 16 17 18 20 22 24 25 26 27 28 27 27 27 28 29 28 25 22 22 22 22 22 21 20 19 18 20 23 24 23 21 20 19 19 18 17 16 15 13 12 11 9 6 4
10 11 11 11 10 9 9 9 8 9 9 9 10 11 11 12 12 12 12 12 12 11 11 11 12 13 14 15 16 18 20 21 22 24 25 26 26 25 26 27 26 24 21 21 20 20 20 20 19 17 17 18 22 24 23 21 20 19 18 17 16 15 13 12 10 9 8 5 3
7 8 9 9 8 7 7 6 6 7 7 8 8 9 10 10 10 10 10 10 10 10 10 10 10 10 11 12 14 15 17 17 18 20 22 23 25 25 25 25 25 23 20 19 19 18 18 18 17 16 15 16 19 22 22 20 19 18 17 16 14 13 11 10 8 7 5 3 2
4 5 6 6 5 5 5 5 5 5 5 6 7 8 8 7 8 8 9 9 9 9 9 9 8 9 10 12 14 15 16 15 15 16 18 21 24 26 26 25 23 21 19 18 18 17 17 16 15 15 14 13 16 19 20 19 17 16 15 13 12 11 9 8 6 4 3 1 360
2 2 3 3 4 4 4 3 4 4 4 5 6 7 7 6 6 6 6 6 7 8 9 9 9 10 12 15 17 18 17 15 14 14 16 19 23 26 27 25 22 20 18 17 17 17 16 15 15 14 13 13 14 16 16 16 15 13 12 10 9 8 7 5 4 2 0 358 357
0 0 1 2 3 3 3 3 3 4 5 5 5 6 6 6 6 6 5 5 6 8 10 11 12 13 16 20 22 21 19 17 15 15 17 19 24 27 28 25 22 19 17 17 17 17 17 16 17 16 15 14 14 14 14 13 12 10 8 7 5 4 4 3 2 0 358 357 355
359 359 359 1 3 4 4 3 3 4 5 6 6 5 6 6 6 7 6 6 8 10 12 13 14 17 20 23 24 23 21 19 18 19 21 23 26 28 28 25 21 18 16 15 17 18 18 18 19 19 18 17 16 15 13 11 9 7 5 4 3 2 1 1 359 358 357 356 354
359 359 360 1 4 5 4 4 5 5 6 6 6 6 5 5 6 7 8 8 10 12 13 15 16 19 21 24 25 24 22 21 21 23 25 28 29 29 27 25 22 19 16 14 16 17 19 19 21 21 21 20 18 15 12 10 7 5 3 2 1 0 359 358 357 356 355 354 353
360 0 1 3 5 6 5 5 6 6 6 6 6 6 6 6 7 8 9 10 11 13 15 17 18 20 22 24 25 25 24 24 25 26 27 29 29 27 25 24 22 19 16 14 15 16 18 18 19 20 21 20 18 14 11 9 6 4 3 2 1 360 359 357 355 354 353 352 351
1 3 4 6 8 8 8 7 8 7 7 6 6 6 6 7 8 9 11 13 15 17 18 19 21 22 24 25 25 25 24 24 25 27 27 28 27 25 23 22 20 18 16 14 14 15 16 16 17 18 18 18 16 13 10 7 5 4 3 2 1 359 358 356 354 353 351 350 349
4 6 8 10 11 11 9 9 9 8 8 8 7 7 7 7 8 11 13 16 19 21 22 22 23 24 25 25 24 23 22 23 24 26 26 25 24 22 21 19 18 16 15 14 13 13 14 14 15 15 15 15 13 11 9 6 4 2 2 0 358 356 355 354 353 352 351 350 348
8 10 12 14 15 14 11 10 9 9 9 10 9 8 8 8 10 13 15 17 20 21 22 22 22 23 24 24 23 21 20 20 22 23 23 22 21 20 18 17 15 14 13 12 11 11 12 12 13 13 13 12 11 10 8 6 3 1 359 357 355 353 351 350 349 350 349 349 347
Height
744 744 745 745 745 745 746 746 746 746 746 745 745 745 744 744 744 743 743 742 742 742 742 741 740 739 738 736 736 734 731 728 726 725 724 723 723 723 723 723 724 725 725 725 725 726 726 726 726 725 725 726 726 726 726 726 726 726 727 727 727 727 728 728 730 731 731 731 731
747 747 747 747 747 747 747 747 747 747 747 747 746 746 746 745 745 745 744 744 743 743 742 742 741 740 738 737 736 734 731 729 727 725 724 723 722 722 721 721 721 721 722 723 724 725 725 725 725 724 724 724 724 724 724 725 725 725 725 725 726 726 726 726 727 729 729 729 729
750 749 749 749 749 749 749 749 750 749 749 748 748 748 747 747 746 746 745 745 744 743 742 742 741 740 739 738 737 735 733 730 729 727 726 724 723 722 722 722 721 721 721 721 722 723 723 723 723 723 723 723 723 723 723 723 724 724 724 724 724 724 724 724 725 726 727 727 727
752 752 751 751 751 751 751 752 752 751 750 750 750 749 749 748 747 747 746 745 744 743 743 742 741 740 740 740 738 736 734 732 730 729 727 725 724 723 723 722 722 721 721 721 721 721 721 721 722 723 723 723 723 723 723 722 722 722 722 722 722 722 723 723 723 723 724 724 725
754 754 754 754 754 754 754 754 754 753 753 752 751 751 750 749 748 747 746 745 745 744 744 743 742 742 741 741 739 737 735 733 732 730 729 727 726 725 724 723 723 722 722 722 721 721 721 721 721 722 723 723 723 723 722 721 720 720 720 720 720 720 721 721 721 721 721 721 723
757 757 757 757 756 756 756 755 755 755 755 754 753 752 751 750 750 749 748 747 746 745 745 744 743 743 743 742 740 737 736 735 734 732 730 729 728 727 726 725 724 723 723 722 722 721 721 721 721 722 722 722 723 723 722 720 719 719 718 718 718 718 719 719 719 719 719 719 720
760 760 759 759 758 758 758 757 757 756 756 755 755 754 753 752 751 750 750 749 747 746 745 745 745 745 744 743 740 739 737 737 735 734 732 730 730 729 727 726 725 724 724 724 724 723 722 722 722 722 722 721 721 720 718 718 717 717 716 717 717 717 717 717 717 717 717 717 717
762 761 761 761 760 760 760 759 758 758 757 757 756 755 755 754 753 751 750 749 748 748 747 747 747 746 745 744 741 740 739 739 737 735 733 731 730 729 728 726 726 726 726 726 726 725 724 724 724 724 724 723 723 721 720 719 717 716 716 717 718 717 717 717 716 716 715 715 714
764 763 763 763 762 762 761 760 760 759 759 758 758 757 756 755 753 752 750 750 750 750 749 748 748 748 746 744 742 742 741 740 739 736 735 733 731 730 729 729 729 729 729 729 728 727 726 726 726 726 725 725 724 723 722 720 718 717 716 718 718 717 717 716 715 714 714 713 713
766 765 765 765 764 764 763 762 761 760 760 760 759 758 757 755 754 753 752 752 751 750 749 749 749 748 746 745 744 744 744 742 740 738 737 735 734 732 732 732 732 732 732 731 730 729 729 729 728 728 727 726 725 725 723 721 720 719 719 720 719 717 716 714 712 711 711 711 711
768 768 767 767 766 765 765 764 763 762 761 761 760 759 758 756 755 754 754 753 751 750 749 749 749 748 748 748 748 747 745 744 741 740 738 737 736 735 735 735 735 735 734 733 732 732 732 731 730 730 728 727 726 725 724 723 722 721 722 721 720 718 717 715 714 713 711 711 710
770 770 769 769 768 767 766 765 764 764 763 762 761 760 759 757 756 755 753 752 750 750 750 750 751 751 752 752 751 749 746 744 742 741 740 739 738 738 737 737 737 736 736 735 735 735 734 734 732 731 729 728 727 727 726 725 724 723 723 722 721 720 719 718 716 715 715 714 712
773 772 771 770 769 768 767 766 766 765 765 764 762 761 759 757 755 754 753 752 752 753 753 754 755 755 755 754 751 749 746 744 743 743 742 742 741 740 739 738 738 738 738 738 737 737 736 735 733 732 731 730 730 729 728 727 726 725 724 723 722 721 721 720 719 718 717 716 715
775 774 773 772 771 770 769 768 768 767 766 765 763 761 759 758 756 755 755 755 755 756 756 756 757 757 756 754 751 749 747 745 745 745 744 744 743 741 740 740 740 740 740 740 739 738 737 735 735 733 733 732 731 730 729 729 728 726 725 725 724 724 723 723 722 720 719 718 717
776 775 775 774 773 772 771 770 769 768 767 765 763 762 760 760 759 758 758 758 758 758 758 758 758 757 756 754 751 750 748 747 747 746 746 745 744 743 742 742 742 742 742 741 740 739 738 737 736 735 734 733 732 731 731 730 729 728 727 727 726 726 725 725 724 723 722 721 719
777 777 776 775 774 773 772 772 771 770 768 766 765 764 763 762 761 761 760 760 760 760 760 760 759 758 756 754 752 750 749 748 748 747 747 746 745 745 744 744 744 744 744 743 741 740 740 739 738 737 736 735 734 733 732 731 730 730 729 729 728 727 727 726 725 725 724 723 722
779 778 777 776 775 775 774 773 772 771 769 768 767 765 765 764 763 763 762 761 761 761 761 760 760 758 757 755 753 751 750 749 749 748 748 748 747 747 746 746 746 745 745 744 743 742 741 740 739 739 738 737 735 734 733 732 732 731 731 730 729 729 729 728 727 726 725 725 724
780 779 778 777 776 776 775 774 773 772 771 770 769 768 767 766 765 764 763 763 763 763 762 761 760 759 758 756 755 753 752 751 750 750 750 750 749 749 748 748 747 747 746 745 744 743 742 741 741 740 739 738 737 736 735 734 734 733 732 731 731 730 730 730 729 728 727 727 726
780 780 779 778 777 777 776 775 774 773 772 771 770 769 769 768 767 766 765 765 765 764 763 762 761 760 759 757 756 755 754 753 753 752 752 752 751 750 750 750 749 748 747 746 746 745 744 743 742 742 741 740 739 738 737 736 735 734 733 733 732 732 731 731 730 729 729 728 728
781 781 780 779 778 778 777 776 775 774 773 772 771 770 770 769 768 767 767 767 766 766 765 764 762 761 760 759 757 756 756 755 755 754 754 753 753 752 751 751 750 749 749 748 747 747 746 745 744 743 742 741 740 739 738 737 736 735 735 734 734 733 733 732 731 730 730 730 729
782 782 781 780 779 778 777 776 775 774 773 772 771 770 770 770 769 769 769 769 768 767 766 765 764 762 761 760 759 758 758 757 757 756 755 755 754 753 752 752 751 750 750 750 749 748 747 746 745 744 743 742 741 740 739 739 738 737 736 735 735 735 735 733 732 732 731 731 730
784 783 782 781 780 779 778 777 776 775 773 772 772 771 771 771 771 771 770 770 769 768 767 766 765 764 763 762 761 760 760 759 759 758 757 756 755 754 754 753 753 752 752 751 750 749 748 747 746 745 744 742 742 741 740 740 739 738 738 737 737 736 736 735 734 733 733 732 732
785 784 783 782 781 780 779 778 777 776 775 774 774 774 773 773 773 772 771 771 770 769 768 768 767 766 765 765 764 762 762 761 760 760 759 758 756 755 755 755 754 754 753 753 752 750 750 748 747 746 745 744 743 742 741 741 740 740 739 738 738 737 736 736 735 734 734 734 733
786 785 785 784 782 781 780 779 778 778 777 777 776 776 775 775 774 773 772 772 771 770 770 769 769 768 767 766 765 764 763 762 761 761 760 759 758 757 756 756 756 755 755 755 754 753 751 750 749 747 746 745 744 744 743 742 741 740 740 739 739 738 737 736 736 735 735 735 735
787 786 785 784 783 782 781 780 780 779 779 778 778 777 776 776 775 774 773 773 772 771 770 770 770 769 768 767 765 764 764 763 762 762 761 760 759 758 758 757 757 757 756 756 755 754 753 751 750 749 747 746 745 745 744 743 743 742 741 740 740 739 738 737 737 736 736 737 736
787 786 786 785 784 783 782 781 781 780 780 779 778 778 777 776 775 775 774 773 773 772 771 770 770 769 768 767 766 765 764 764 763 763 762 761 760 760 759 758 758 758 758 757 756 755 753 752 751 750 748 747 746 745 745 745 744 744 743 742 741 740 740 739 739 738 738 738 737
788 787 787 786 785 784 783 783 782 781 780 780 779 778 778 777 776 775 775 774 773 773 772 771 770 770 769 768 767 766 765 765 764 764 763 763 762 761 760 759 759 759 758 758 756 755 754 752 751 750 749 748 747 746 746 746 745 745 744 743 743 742 741 741 740 740 739 739 738
789 788 788 787 786 785 785 784 783 782 781 781 780 780 779 778 777 776 775 775 774 773 772 772 771 770 770 769 768 767 766 766 765 765 764 764 763 762 761 760 760 760 759 758 757 755 754 753 752 751 750 749 748 747 747 747 746 745 745 744 744 743 742 741 741 740 740 739 737
790 789 789 788 787 786 785 785 784 783 783 782 781 780 780 779 778 777 776 775 775 774 773 773 772 771 770 770 769 768 767 767 766 765 765 765 764 763 762 761 760 760 759 758 757 756 755 754 753 752 751 750 749 748 748 747 747 746 745 745 744 744 743 742 741 740 739 738 737
791 790 789 789 788 787 786 785 785 784 784 783 782 781 780 779 778 777 776 776 775 775 774 774 773 772 771 771 770 769 769 768 767 766 765 765 764 764 763 762 761 760 760 759 758 757 756 755 754 753 752 751 750 749 748 748 747 747 746 745 745 744 743 742 741 740 739 738 737
792 791 790 789 789 788 787 786 786 785 784 783 782 781 780 780 779 778 777 777 776 776 775 774 774 773 772 772 771 770 770 769 768 767 766 765 765 764 763 763 762 761 760 759 758 757 756 755 755 754 753 751 750 750 749 748 748 747 746 745 745 744 743 742 741 740 739 738 737
793 792 791 790 790 789 788 787 786 785 785 784 783 782 781 780 780 779 778 778 777 776 775 775 774 773 773 772 771 771 770 769 768 768 767 766 765 765 764 763 762 762 761 760 759 758 757 756 755 754 753 752 751 750 749 749 748 747 747 746 745 744 743 742 741 740 739 738 737
794 793 792 791 790 790 789 788 787 786 785 784 783 783 782 781 780 780 779 778 777 777 776 775 775 774 773 772 772 771 770 770 769 768 767 766 766 765 765 764 763 762 761 760 759 758 757 756 755 754 753 752 751 750 750 749 748 747 747 746 745 744 743 742 741 740 740 739 737
794 793 792 791 791 790 789 789 788 787 786 785 784 783 783 782 781 780 779 779 778 777 777 776 775 775 774 773 772 772 771 770 770 769 768 767 766 766 765 764 764 763 762 761 760 759 758 757 755 755 754 752 751 750 750 749 748 747 747 746 745 744 744 743 742 741 740 739 738
795 794 793 792 791 790 790 789 788 787 786 785 784 784 783 782 781 781 780 779 779 778 777 776 776 775 774 774 773 772 771 770 770 769 768 768 767 766 766 765 764 764 763 762 761 760 758 757 756 755 754 753 752 751 750 749 748 748 747 746 745 744 743 743 742 741 740 739 738
795 794 793 792 791 791 790 789 788 787 786 785 785 784 783 782 782 781 780 780 779 778 777 777 776 775 775 774 773 773 772 771 770 770 769 768 768 767 766 766 765 764 763 762 761 760 759 758 757 755 755 753 752 751 750 750 749 748 747 746 745 744 744 743 742 741 740 739 738
795 794 793 792 792 791 790 789 788 787 786 785 785 784 784 783 782 782 781 780 779 779 778 777 776 776 775 775 774 774 773 772 771 770 770 769 768 768 767 766 765 765 764 763 762 761 760 758 757 756 755 754 753 752 751 750 749 748 747 746 745 745 744 743 742 741 740 740 739
795 795 794 793 792 791 791 790 789 788 787 786 785 785 784 784 783 782 782 781 780 780 779 778 777 777 776 775 775 775 774 773 772 771 770 769 769 768 767 767 766 765 764 763 762 761 760 759 757 756 755 754 753 752 751 750 749 749 747 746 746 745 744 743 742 742 741 740 739
796 795 794 793 793 792 791 790 790 789 788 787 786 786 785 784 784 783 783 782 781 780 780 779 778 778 777 776 775 775 774 773 772 771 770 770 769 768 767 766 766 765 764 763 762 761 760 759 758 756 755 754 753 752 751 750 749 748 747 746 745 745 744 744 743 742 741 740 740
797 795 795 794 793 793 792 791 790 790 789 788 787 786 785 785 784 784 783 782 781 780 780 779 779 778 777 776 775 774 773 772 771 771 770 770 769 768 767 766 766 765 764 763 762 761 760 759 758 757 756 755 753 752 751 750 749 748 747 746 745 745 744 743 743 742 741 740 740
797 796 795 794 794 793 792 791 790 790 789 788 787 786 786 785 784 784 783 782 781 780 780 779 778 777 776 775 774 773 772 771 771 770 770 770 769 768 767 766 766 765 764 763 763 762 761 760 759 758 757 755 755 753 752 751 750 748 747 746 745 745 744 743 742 741 741 740 740